Weather observations for the past three days for
Elmira, Elmira / Corning Regional Airport
Metric (Imperial)
Date Time (edt) Wind (kph) Vis. (km) Weather Sky Cond. Temperature (ºC) Relative Humidity Wind Chill (°C) Heat Index (°C) Pressure Precipitation (cm)
Air Dwpt 6 hour altimeter (cm) sea level (mb) 1 hr 3 hr 6 hr
Max. Min.
24 23:53 Calm 16.09 Fair CLR 14.4 10.6 78% 75.97 1012.4
24 22:53 N 6 16.09 Fair CLR 15 10.6 75% 75.95 1012.2
24 21:53 Calm 16.09 Fair CLR 17.2 10.6 65% 75.9 1011.4
24 20:53 NE 9 16.09 Fair CLR 21.7 10 47% 75.82 1010.5
24 19:53 Calm 16.09 Fair CLR 23.9 9.4 28.9 23.9 40% 25 75.79 1009.9
24 18:53 N 11 16.09 Fair CLR 26.7 8.3 31% 26 75.77 1009.6
24 17:53 NW 15 G 33 16.09 Fair CLR 27.2 8.9 32% 27 75.77 1009.5
24 16:53 NW 11 G 28 16.09 Fair CLR 27.8 7.8 28% 27 75.77 1009.6
24 15:53 N 11 16.09 A Few Clouds FEW090 27.8 8.3 29% 27 75.79 1010.2
24 14:53 Vrbl 11 16.09 Fair CLR 27.8 7.2 27% 27 75.79 1010.0
24 13:53 W 15 16.09 Fair CLR 27.2 7.8 27.2 15 29% 27 75.82 1010.3
24 12:53 W 15 16.09 Fair CLR 26.7 9.4 34% 26 75.84 1010.7
24 11:53 Vrbl 9 G 31 16.09 Fair CLR 25.6 8.3 33% 26 75.9 1011.3
24 10:53 Calm 16.09 Fair CLR 25 8.9 36% 26 75.9 1011.5
24 09:53 S 13 16.09 Fair CLR 22.2 11.1 50% 75.92 1011.7
24 08:53 SW 11 16.09 Fair CLR 18.3 11.7 66% 75.97 1012.3
24 07:53 SW 9 16.09 Fair CLR 15 11.1 15 8.3 78% 75.95 1012.3
24 06:53 SW 9 16.09 Fair CLR 11.7 10 89% 75.97 1012.6
24 05:53 SW 7 16.09 Fair CLR 11.1 9.4 89% 75.97 1012.4
24 04:53 W 7 16.09 Fair CLR 10.6 8.9 89% 75.92 1011.8
24 03:53 Calm 16.09 Fair CLR 8.9 7.2 89% 75.92 1012.0
24 02:53 Calm 16.09 Fair CLR 10 7.8 86% 75.95 1012.0
24 01:53 Calm 16.09 Fair CLR 11.1 8.9 22.8 10 86% 75.95 1012.0
24 00:53 SW 6 16.09 Fair CLR 12.2 8.9 80% 75.97 1012.5
23 23:53 Calm 16.09 Fair CLR 12.8 9.4 80% 75.97 1012.6
23 22:53 Calm 16.09 Fair CLR 15 10 72% 75.97 1012.5
23 21:53 Calm 16.09 Fair CLR 16.1 10 67% 75.95 1012.1
23 20:53 W 6 16.09 Fair CLR 20 9.4 51% 75.87 1011.1
23 19:53 NW 7 16.09 Fair CLR 22.8 10 27.8 22.8 44% 75.84 1010.6
23 18:53 W 9 16.09 Fair CLR 25.6 8.3 33% 26 75.84 1010.4
23 17:53 NW 11 16.09 Fair CLR 26.7 7.2 29% 26 75.87 1010.7
23 16:53 W 11 16.09 Fair CLR 27.2 8.3 30% 27 75.87 1010.8
23 15:53 NW 11 16.09 A Few Clouds FEW075 26.1 9.4 35% 26 75.9 1011.2
23 14:53 Vrbl 9 16.09 Partly Cloudy SCT075 26.7 9.4 34% 26 75.92 1011.5
23 13:53 W 7 16.09 Fair CLR 26.1 10 26.1 18.9 36% 26 75.95 1011.9
23 12:53 W 15 16.09 Fair CLR 25 9.4 37% 26 75.97 1012.4
23 11:53 NW 7 16.09 A Few Clouds FEW045 23.9 11.7 46% 25 76.02 1013.0
23 10:53 E 9 16.09 Fair CLR 22.2 12.2 53% 76.05 1013.4
23 09:53 NW 9 16.09 Mostly Cloudy SCT028 BKN035 21.1 15.6 71% 76.1 1013.9
23 08:53 Calm 16.09 A Few Clouds FEW120 19.4 17.2 87% 76.05 1013.3
23 07:53 Calm 16.09 Partly Cloudy SCT120 18.9 17.2 19.4 16.1 90% 76.02 1012.9 0.03
23 06:53 W 6 16.09 Overcast FEW043 BKN090 OVC110 18.3 16.7 90% 75.95 1011.9 0.03
23 05:53 Vrbl 7 14.48 Overcast SCT009 BKN085 OVC110 17.2 16.7 97% 75.84 1010.6
23 04:53 W 6 2.41 Fog/Mist CLR 16.1 15.6 97% 75.84 1010.5
23 03:53 E 6 4.83 Fog/Mist BKN002 16.7 16.1 96% 75.77 1009.5
23 02:53 Calm 0.40 Fog VV001 17.2 16.1 93% 75.79 1009.7
23 01:53 Calm 1.21 Fog/Mist VV001 17.2 16.7 22.8 16.1 97% 75.77 1009.3 0.08
23 00:53 W 7 14.48 Fair CLR 16.7 15.6 93% 75.79 1009.8
22 23:53 Calm 4.02 Fog/Mist CLR 17.8 17.2 96% 75.82 1010.1
22 22:53 Calm 16.09 A Few Clouds FEW085 18.3 17.2 93% 75.82 1010.1 0.08 0.08
22 21:53 Calm 16.09 Thunderstorm in Vicinity BKN070 OVC100 21.1 16.7 76% 75.84 1010.4
22 20:53 S 6 16.09 Mostly Cloudy BKN080 21.1 16.1 73% 75.82 1010.3
22 19:53 Vrbl 6 16.09 Fair CLR 22.8 15.6 32.2 22.2 64% 75.79 1009.9
22 18:53 W 17 G 39 16.09 Light Rain OVC110 22.2 16.1 68% 75.79 1009.9
22 17:53 SW 19 16.09 A Few Clouds FEW100 26.7 17.8 58% 28 75.74 1009.3
22 16:53 SW 11 16.09 Mostly Cloudy BKN065 BKN080 28.3 17.8 53% 29 75.77 1009.6
22 15:53 W 15 16.09 Thunderstorm in Vicinity CLR 28.9 17.2 49% 29 75.74 1009.4
22 14:53 S 11 16.09 Thunderstorm FEW075 30 17.8 48% 31 75.77 1009.5
22 13:53 SW 24 G 33 16.09 A Few Clouds FEW060 32.2 16.7 32.2 18.9 39% 32 75.79 1009.6
22 12:53 S 19 G 33 16.09 A Few Clouds FEW060 30.6 16.7 43% 31 75.82 1010.0
22 11:53 SW 20 G 37 16.09 Fair CLR 30.6 16.7 43% 31 75.9 1011.0
22 10:53 S 6 16.09 Fair CLR 28.3 17.8 53% 29 75.95 1011.6
22 09:53 Calm 16.09 Fair CLR 25.6 17.2 60% 27 76 1012.4
22 08:53 Calm 16.09 Fair CLR 22.8 16.1 66% 76.02 1012.8
22 07:53 Calm 16.09 Fair CLR 18.9 15 18.9 13.3 78% 76.05 1013.1
22 06:53 Calm 16.09 Fair CLR 16.1 13.9 87% 76.05 1013.2
22 05:53 Calm 11.27 Fair CLR 13.3 12.8 97% 76.02 1013.0
22 04:53 Calm 16.09 Fair CLR 14.4 13.3 93% 76.05 1013.1
22 03:53 Calm 16.09 Fair CLR 14.4 12.8 90% 76 1012.5
22 02:53 Calm 16.09 Fair CLR 16.1 13.9 87% 75.95 1011.8
22 01:53 Calm 16.09 Fair CLR 16.7 13.3 28.3 15.6 80% 75.97 1012.0
22 00:53 E 7 16.09 Fair CLR 17.8 13.9 78% 75.95 1011.7
Date Time (edt) Wind (kph) Vis. (km) Weather Sky Cond. Air Dwpt Max. Min. Relative Humidity Wind Chill (°C) Heat Index (°C) altimeter (cm) sea level (mb) 1 hr 3 hr 6 hr
6 hour
Temperature (ºC) Pressure Precipitation (cm)